Station ANVC1 - 9416841 - Arena Cove, CA Image indicating link to RSS feed of recent meteorological observations for station ANVC1


Conditions at ANVC1 as of
(11:00 pm PDT on 08/30/2026)
0600 GMT on 08/31/2026:
     

Click on the graph icon in the table below to see a time series plot of the last five days of that observation.

5-day plot - Wind Speed Wind Speed (WSPD): 0.0 kts
5-day plot - Wind Gust Wind Gust (GST): 4.1 kts
5-day plot - Atmospheric Pressure Atmospheric Pressure (PRES):29.90 in
5-day plot - Pressure Tendency Pressure Tendency (PTDY):+0.00 in ( Steady )
5-day plot - Air Temperature Air Temperature (ATMP): 55.0 °F
5-day plot - Water Temperature Water Temperature (WTMP): 52.2 °F
5-day plot - Wind Speed at 10 Meters Wind Speed at 10 meters (WSPD10M): 1.9 kts
5-day plot - Wind Speed at 20 Meters Wind Speed at 20 meters (WSPD20M): 1.9 kts
5-day plot -  Wind Speed, Wind Gust and Atmospheric Pressure Combined plot of Wind Speed, Gust, and Air Pressure
NOS Water Level Observation Network Water Level
Previous observations
TIME
(PDT)
5-day plot - Wind Direction
WDIR
 
5-day plot - Wind Speed
WSPD
kts
5-day plot - Wind Gust
GST
kts
5-day plot - Wave Height
WVHT
ft
5-day plot - Dominant Wave Period
DPD
sec
5-day plot - Average Wave Period
APD
sec
5-day plot - Mean Wave Direction
MWD
 
5-day plot - Atmospheric Pressure
PRES
in
5-day plot - Pressure Tendency
PTDY
in
5-day plot - Air Temperature
ATMP
°F
5-day plot - Water Temperature
WTMP
°F
5-day plot - Dew Point
DEWP
°F
5-day plot - Salinity
SAL
psu
5-day plot - Visibility
VIS
nmi
5-day plot - Tide (above MLLW)
TIDE
ft
2026-08-30 10:54 pmWNW 1.9 2.9----29.90- 55.2 52.2----
2026-08-30 10:48 pm W 1.9 4.1----29.90- 55.2 52.2----
2026-08-30 10:42 pmWNW 1.9 4.1----29.90- 55.2 52.2----
2026-08-30 10:36 pm NW 1.0 5.1----29.90- 55.2 52.2----
2026-08-30 10:30 pmWNW 2.9 5.1----29.90- 55.4 52.2----
2026-08-30 10:24 pmWNW 1.9 4.1----29.90- 55.4 52.3----
2026-08-30 10:18 pm NW 1.9 5.1----29.90-- 52.3----
2026-08-30 10:12 pm W 1.9 5.1----29.90-- 52.3----
2026-08-30 10:06 pmWNW 1.9 5.1----29.91-- 52.3----
2026-08-30 10:00 pmWNW 1.9 4.1----29.91+0.00 55.6 52.3----
2026-08-30 09:54 pm- 0.0 4.1----29.91- 55.6 52.3----
2026-08-30 09:48 pm SW 1.9 2.9----29.91- 55.8 52.3----
2026-08-30 09:42 pmNNW 1.9 4.1----29.91- 55.8 52.3----
2026-08-30 09:36 pmWSW 1.0 5.1----29.91- 55.8 52.3----
2026-08-30 09:30 pmWNW 1.9 5.1----29.91- 55.8 52.3----
2026-08-30 09:24 pm NW 1.9 5.1----29.91- 55.9 52.3----
2026-08-30 09:18 pmWSW 1.9 4.1----29.91- 55.9 52.3----
2026-08-30 09:12 pmSSW 1.9 4.1----29.91- 55.9 52.3----
2026-08-30 09:06 pmWNW 1.9 6.0----29.91- 55.9 52.3----
2026-08-30 09:00 pm W 2.9 5.1----29.91+0.00 55.9 52.3----
2026-08-30 08:54 pmWNW 1.9 4.1----29.90- 56.1 52.3----
2026-08-30 08:48 pm W 2.9 5.1----29.90- 56.1 52.5----
2026-08-30 08:42 pmWNW 1.9 6.0----29.90- 56.1 52.5----
2026-08-30 08:36 pmWNW 1.9 5.1----29.90- 56.1 52.3----
2026-08-30 08:30 pm NW 1.9 5.1----29.90- 56.1 52.5----
2026-08-30 08:24 pmWSW 1.9 4.1----29.90- 56.3 52.5----
2026-08-30 08:18 pmWNW 1.9 5.1----29.90- 56.3 52.5----
2026-08-30 08:12 pm W 1.9 7.0----29.90- 56.3 52.5----
2026-08-30 08:06 pmWNW 2.9 5.1----29.90- 56.3 52.5----
2026-08-30 08:00 pmWNW 1.9 6.0----29.90-0.01 56.5 52.5----
2026-08-30 07:54 pmWNW 2.9 7.0----29.90- 56.5 52.5----
2026-08-30 07:48 pm NW 4.1 8.0----29.90- 56.7 52.7----
2026-08-30 07:42 pmWNW 4.1 11.1----29.90- 56.8 52.7----
2026-08-30 07:36 pmWNW 4.1 9.9----29.90- 57.0 52.5----
2026-08-30 07:30 pmWNW 4.1 8.9----29.90- 57.2 52.5----
2026-08-30 07:24 pmWNW 4.1 8.0----29.90- 57.4 52.5----
2026-08-30 07:18 pmWNW 5.1 8.0----29.90-- 52.7----
2026-08-30 07:12 pmWNW 5.1 8.0----29.90-- 52.7----
2026-08-30 07:06 pm W 4.1 8.9----29.90-- 52.7----
2026-08-30 07:00 pmWNW 4.1 8.9----29.90-0.03 57.9 52.7----
2026-08-30 06:54 pm NW 6.0 9.9----29.91- 58.1 52.7----
2026-08-30 06:48 pm NW 5.1 8.9----29.91- 58.3 52.7----
2026-08-30 06:42 pmWNW 5.1 9.9----29.91- 58.3 52.7----
2026-08-30 06:36 pmWNW 5.1 12.0----29.91- 58.5 52.7----
2026-08-30 06:30 pmWNW 7.0 11.1----29.91- 58.5 52.9----
2026-08-30 06:24 pmWNW 6.0 13.0----29.91- 58.6 52.9----
2026-08-30 06:18 pm NW 7.0 14.0----29.91- 58.8 52.9----
2026-08-30 06:12 pmWNW 7.0 12.0----29.91- 58.8 52.9----
2026-08-30 06:06 pmWNW 7.0 14.0----29.91- 59.0 52.9----
2026-08-30 06:00 pmWNW 7.0 14.0----29.91-0.04 58.8 52.7----
2026-08-30 05:54 pmWNW 8.0 15.9----29.91- 59.0 52.7----
2026-08-30 05:48 pmWNW 8.0 12.0----29.91-- 52.7----
2026-08-30 05:42 pmWNW 8.0 15.0----29.91-- 52.7----
2026-08-30 05:36 pm NW 8.0 13.0----29.91-- 52.7----
2026-08-30 05:30 pmWNW 8.0 17.1----29.91- 59.4 52.7----
2026-08-30 05:24 pmWNW 8.0 15.0----29.91- 59.4 52.7----
2026-08-30 05:18 pmWNW 8.0 13.0----29.92-- 52.5----
2026-08-30 05:12 pmWNW 8.0 13.0----29.92-- 52.7----
2026-08-30 05:06 pmWNW 8.0 15.0----29.92-- 52.9----
2026-08-30 05:00 pmWNW 7.0 17.1----29.92-0.04- 52.9----
2026-08-30 04:54 pm NW 9.9 15.0----29.92-- 52.9----
2026-08-30 04:48 pmWNW 8.0 14.0----29.92-- 52.9----
2026-08-30 04:42 pmWNW 5.1 12.0----29.92-- 53.1----
2026-08-30 04:36 pmWNW 8.9 15.9----29.92-- 52.9----
2026-08-30 04:30 pm NW 8.9 15.0----29.92- 59.5 52.7----
2026-08-30 04:24 pm NW 7.0 13.0----29.92- 59.9 52.9----
2026-08-30 04:18 pm NW 11.1 15.0----29.92-- 53.1----
2026-08-30 04:12 pmWNW 8.9 17.1----29.93-- 52.9----
2026-08-30 04:06 pm NW 11.1 15.9----29.93-- 52.7----
2026-08-30 04:00 pmWNW 8.9 15.9----29.93-0.03 59.4 52.7----
2026-08-30 03:54 pmWNW 11.1 15.0----29.93- 59.2 52.7----
2026-08-30 03:48 pmWNW 9.9 18.1----29.93- 59.2-----
2026-08-30 03:42 pmWNW 11.1 19.0----29.93- 59.0-----
2026-08-30 03:36 pmWNW 8.9 15.0----29.93- 59.0-----
2026-08-30 03:30 pm NW 8.0 15.0----29.93- 59.5 52.5----
2026-08-30 03:24 pmWNW 9.9 15.9----29.93- 59.2 51.3----
2026-08-30 03:18 pmWNW 9.9 15.0----29.93-- 51.3----
2026-08-30 03:12 pmWNW 7.0 14.0----29.94-- 51.3----
2026-08-30 03:06 pmWNW 8.9 17.1----29.94-- 51.3----
2026-08-30 03:00 pmWNW 9.9 17.1----29.94-0.02 59.9 51.4----
2026-08-30 02:54 pm NW 8.9 14.0----29.95- 60.1 51.4----
2026-08-30 02:48 pm NW 7.0 15.0----29.95- 59.9 51.6----
2026-08-30 02:42 pmWNW 8.0 17.1----29.95- 60.1 52.0----
2026-08-30 02:36 pm NW 8.0 14.0----29.95- 59.9 51.8----
2026-08-30 02:30 pm NW 6.0 15.9----29.95- 60.1 51.8----
2026-08-30 02:24 pmWNW 8.9 17.1----29.95- 59.7 52.0----
2026-08-30 02:18 pmWNW 11.1 15.9----29.96-- 52.2----
2026-08-30 02:12 pmWNW 9.9 15.0----29.96-- 52.5----
2026-08-30 02:06 pm NW 8.0 15.0----29.96-- 52.5----
2026-08-30 02:00 pmWNW 6.0 15.9----29.96+0.00 59.7 52.5----
2026-08-30 01:54 pm NW 11.1 15.0----29.96- 59.5 52.7----
2026-08-30 01:48 pm NW 8.9 17.1----29.96- 59.7 52.3----
2026-08-30 01:42 pm NW 12.0 20.0----29.96- 59.2 52.0----
2026-08-30 01:36 pm NW 8.0 17.1----29.96- 59.7 52.2----
2026-08-30 01:30 pm NW 8.0 15.0----29.96- 59.7 52.0----
2026-08-30 01:24 pm W 8.0 13.0----29.96- 59.7 51.8----
2026-08-30 01:18 pmWNW 8.0 14.0----29.96-- 51.8----
2026-08-30 01:12 pm NW 9.9 18.1----29.96-- 52.2----
2026-08-30 01:06 pmWNW 8.9 14.0----29.96-- 52.0----
2026-08-30 01:00 pmWNW 11.1 15.0----29.96+0.00 59.0 52.2----
2026-08-30 12:54 pmWNW 11.1 15.0----29.96- 59.0 52.2----
2026-08-30 12:48 pmWNW 8.0 14.0----29.96- 59.5 52.0----
2026-08-30 12:42 pm W 6.0 11.1----29.96- 59.5 52.0----
2026-08-30 12:36 pmWNW 5.1 11.1----29.97- 59.4 52.0----
2026-08-30 12:30 pmWNW 7.0 12.0----29.96- 59.2 51.8----
2026-08-30 12:24 pmWNW 7.0 13.0----29.97- 59.0 51.8----
2026-08-30 12:18 pmWNW 9.9 14.0----29.97-- 51.8----
2026-08-30 12:12 pmWNW 9.9 13.0----29.97-- 51.8----
2026-08-30 12:06 pmWNW 7.0 14.0----29.97-- 51.8----
2026-08-30 12:00 pmWNW 9.9 13.0----29.97+0.01 57.7 51.6----
2026-08-30 11:54 amWNW 6.0 13.0----29.97- 57.7 51.6----
2026-08-30 11:48 amWNW 8.9 13.0----29.97- 57.2 51.6----
2026-08-30 11:42 amWNW 7.0 12.0----29.97- 57.4 51.6----
2026-08-30 11:36 amWNW 8.0 12.0----29.97- 56.8 51.4----
2026-08-30 11:30 amWNW 8.0 13.0----29.97- 56.7 51.4----
2026-08-30 11:24 amWNW 8.9 12.0----29.97- 56.8 51.4----
2026-08-30 11:18 am W 7.0 9.9----29.97-- 51.4----
2026-08-30 11:12 amWNW 8.0 12.0----29.97-- 51.4----
2026-08-30 11:06 amWNW 7.0 14.0----29.97-- 51.4----
2026-08-30 11:00 amWNW 8.9 13.0----29.96+0.01 56.8 51.4----
2026-08-30 10:54 am NW 5.1 8.9----29.96- 56.8 51.4----
2026-08-30 10:48 amWNW 4.1 8.0----29.96- 56.8 51.3----
2026-08-30 10:42 am NW 6.0 11.1----29.96- 56.5 51.3----
2026-08-30 10:36 am NW 5.1 11.1----29.96- 56.3 51.3----
2026-08-30 10:30 am NW 1.9 7.0----29.96- 55.8 51.3----
2026-08-30 10:24 amNNW 4.1 11.1----29.96- 55.4 51.3----
2026-08-30 10:18 amWNW 5.1 8.0----29.96- 55.6 51.4----
2026-08-30 10:12 am NW 5.1 8.0----29.96- 55.2 51.4----
2026-08-30 10:06 am NW 6.0 8.9----29.96- 55.2 51.3----
2026-08-30 10:00 amWNW 2.9 8.0----29.96+0.02 55.4 51.4----
2026-08-30 09:54 am NW 6.0 9.9----29.96- 55.0 51.4----
2026-08-30 09:48 amWNW 2.9 8.9----29.96- 55.2 51.3----
2026-08-30 09:42 amWNW 2.9 7.0----29.96- 55.4 51.3----
2026-08-30 09:36 am NW 2.9 7.0----29.96- 55.4 51.3----
2026-08-30 09:30 am NW 4.1 7.0----29.96- 55.4 51.3----
2026-08-30 09:24 am NW 2.9 9.9----29.96- 55.4 51.3----
2026-08-30 09:18 amWNW 5.1 8.9----29.96- 55.4 51.3----
2026-08-30 09:12 am NW 4.1 8.0----29.95- 55.4 51.3----
2026-08-30 09:06 amWNW 2.9 5.1----29.95- 55.2 51.3----
2026-08-30 09:00 amNNW 4.1 7.0----29.96+0.03 55.2 51.3----
2026-08-30 08:54 amWNW 2.9 6.0----29.96- 55.0 51.3----
2026-08-30 08:48 am NW 4.1 8.0----29.96-- 51.3----
2026-08-30 08:42 am NW 5.1 8.0----29.95-- 51.3----
2026-08-30 08:36 am NW 4.1 7.0----29.96-- 51.3----
2026-08-30 08:30 amWNW 2.9 6.0----29.96- 54.7 51.3----
2026-08-30 08:24 amWNW 4.1 7.0----29.96- 54.7 51.3----
2026-08-30 08:18 am NW 4.1 7.0----29.96-- 51.3----
2026-08-30 08:12 am NW 4.1 6.0----29.95-- 51.3----
2026-08-30 08:06 amWNW 2.9 8.0----29.95-- 51.1----
2026-08-30 08:00 amWNW 2.9 7.0----29.95+0.03 54.3 51.1----
2026-08-30 07:54 am W 2.9 8.9----29.95- 54.3 51.1----
2026-08-30 07:48 amWNW 2.9 6.0----29.95- 54.3 51.1----
2026-08-30 07:42 amWNW 2.9 6.0----29.95- 54.1 51.1----
2026-08-30 07:36 amWNW 2.9 6.0----29.95- 54.1 51.1----
2026-08-30 07:30 am NW 4.1 6.0----29.95- 54.1 51.1----
2026-08-30 07:24 am W 2.9 6.0----29.94- 54.0 51.1----
2026-08-30 07:18 amWNW 1.9 7.0----29.94-- 51.1----
2026-08-30 07:12 amWNW 2.9 9.9----29.94-- 51.1----
2026-08-30 07:06 am NW 5.1 8.9----29.94-- 51.1----
2026-08-30 07:00 amWNW 4.1 8.0----29.93+0.00 54.0 51.1----
2026-08-30 06:54 amWNW 2.9 7.0----29.93- 54.0 51.1----
2026-08-30 06:48 amWNW 5.1 8.9----29.93- 54.0 51.1----
2026-08-30 06:42 amWNW 2.9 7.0----29.93- 54.1 51.1----
2026-08-30 06:36 am NW 2.9 8.9----29.93- 54.1 51.1----
2026-08-30 06:30 amWNW 4.1 8.9----29.93- 54.1 51.1----
2026-08-30 06:24 amWNW 4.1 8.9----29.93- 54.3 51.1----
2026-08-30 06:18 am W 4.1 7.0----29.93-- 51.1----
2026-08-30 06:12 amWNW 4.1 7.0----29.93-- 51.1----
2026-08-30 06:06 am NW 4.1 7.0----29.93-- 51.1----
2026-08-30 06:00 amWNW 5.1 8.9----29.93-0.01 54.1 51.1----
2026-08-30 05:54 amWNW 5.1 8.9----29.93- 54.3 51.1----
2026-08-30 05:48 amWNW 4.1 8.9----29.93- 54.3 51.1----
2026-08-30 05:42 amWNW 4.1 8.0----29.93- 54.3 51.1----
2026-08-30 05:36 amWNW 5.1 8.0----29.93- 54.5 51.1----
2026-08-30 05:30 amWNW 2.9 9.9----29.93- 54.5 51.1----
2026-08-30 05:24 amWNW 5.1 12.0----29.93- 54.5 51.1----
2026-08-30 05:18 amWNW 4.1 8.9----29.93-- 51.1----
2026-08-30 05:12 amWNW 5.1 9.9----29.93-- 51.1----
2026-08-30 05:06 amWNW 5.1 9.9----29.93-- 51.1----
2026-08-30 05:00 am-------29.93-0.01 54.7 51.1----
2026-08-30 04:54 am-------29.93- 54.7 51.1----
2026-08-30 04:48 amWNW 6.0 9.9----29.93-------
2026-08-30 04:42 amWNW 6.0 11.1----29.93-------
2026-08-30 04:36 amWNW 5.1 8.9----29.93-------
2026-08-30 04:30 amWNW 6.0 11.1----29.93-- 51.1----
2026-08-30 04:24 amWNW 5.1 12.0----29.93-- 51.1----
2026-08-30 04:18 amWNW 7.0 13.0----29.93-- 51.1----
2026-08-30 04:12 amWNW 5.1 13.0----29.93-- 51.1----
2026-08-30 04:06 amWNW 5.1 12.0----29.93-- 51.1----
2026-08-30 04:00 amWNW 5.1 9.9----29.93-0.02 55.0 51.1----
2026-08-30 03:54 amWNW 5.1 9.9----29.93- 55.0 51.1----
2026-08-30 03:48 amWNW 5.1 13.0----29.93- 55.2 51.3----
2026-08-30 03:42 amWNW 5.1 9.9----29.93- 55.2 51.1----
2026-08-30 03:36 amWNW 6.0 9.9----29.93- 55.4 51.1----
2026-08-30 03:30 amWNW 4.1 8.9----29.93- 55.4 51.1----
2026-08-30 03:24 amWNW 5.1 11.1----29.93- 55.6 51.3----
2026-08-30 03:18 amWNW 5.1 12.0----29.93-- 51.3----
2026-08-30 03:12 amWNW 5.1 12.0----29.93-- 51.3----
2026-08-30 03:06 amWNW 6.0 12.0----29.93-- 51.3----
2026-08-30 03:00 amWNW 6.0 9.9----29.93-0.02 55.6 51.3----
2026-08-30 02:54 am NW 5.1 11.1----29.93- 55.8 51.3----
2026-08-30 02:48 amWNW 5.1 8.9----29.94- 55.8 51.3----
2026-08-30 02:42 amWNW 4.1 9.9----29.94- 55.9 51.3----
2026-08-30 02:36 amWNW 6.0 8.0----29.93- 55.9 51.3----
2026-08-30 02:30 amWNW 6.0 11.1----29.93- 55.9 51.3----
2026-08-30 02:24 amWNW 7.0 12.0----29.93- 55.9 51.3----
2026-08-30 02:18 amWNW 7.0 11.1----29.93-- 51.3----
2026-08-30 02:12 amWNW 7.0 13.0----29.93-- 51.3----
2026-08-30 02:06 amWNW 5.1 11.1----29.94-- 51.3----
2026-08-30 02:00 amWNW 5.1 9.9----29.94-0.03 55.9 51.3----
2026-08-30 01:54 am NW 7.0 14.0----29.94- 56.1 51.3----
2026-08-30 01:48 amWNW 6.0 11.1----29.94- 56.1 51.3----
2026-08-30 01:42 amWNW 5.1 9.9----29.94- 56.1 51.3----
2026-08-30 01:36 amWNW 5.1 8.9----29.94- 56.1 51.3----
2026-08-30 01:30 amWNW 5.1 12.0----29.94- 56.1 51.3----
2026-08-30 01:24 amWNW 5.1 9.9----29.94- 56.1 51.3----
2026-08-30 01:18 amWNW 5.1 9.9----29.94-- 51.3----
2026-08-30 01:12 amWNW 6.0 9.9----29.95-- 51.3----
2026-08-30 01:06 amWNW 5.1 11.1----29.95-- 51.3----
2026-08-30 01:00 amWNW 5.1 8.9----29.95-0.03 56.7 51.3----
2026-08-30 12:54 amWNW 6.0 9.9----29.95- 56.7 51.3----
2026-08-30 12:48 amWNW 4.1 8.9----29.95- 56.5 51.3----
2026-08-30 12:42 amWNW 5.1 8.9----29.95- 56.5 51.3----
2026-08-30 12:36 amWNW 5.1 9.9----29.95- 56.3 51.3----
2026-08-30 12:30 amWNW 5.1 7.0----29.95- 56.5 51.3----
2026-08-30 12:24 amWNW 5.1 8.0----29.95- 56.3 51.3----
2026-08-30 12:18 amWNW 5.1 8.0----29.95-- 51.4----
2026-08-30 12:12 am W 5.1 6.0----29.95-- 51.4----
2026-08-30 12:06 amWNW 2.9 6.0----29.96-- 51.4----
2026-08-30 12:00 amWNW 4.1 7.0----29.96-0.02 56.3 51.3----
2026-08-29 11:54 pm W 4.1 7.0----29.96- 56.3 51.3----
2026-08-29 11:48 pmWNW 4.1 6.0----29.96- 56.5 51.3----
2026-08-29 11:42 pmWNW 4.1 6.0----29.96- 56.5 51.3----
2026-08-29 11:36 pm W 2.9 7.0----29.96- 56.7 51.3----
2026-08-29 11:30 pm W 2.9 8.9----29.96- 56.7 51.3----
2026-08-29 11:24 pmWNW 4.1 8.0----29.96- 56.8 51.3----
2026-08-29 11:18 pmWNW 4.1 7.0----29.96-- 51.3----
2026-08-29 11:12 pmWNW 2.9 7.0----29.96-- 51.3----
2026-08-29 11:06 pmWNW 4.1 8.0----29.96-- 51.4----
2026-08-29 11:00 pmWNW 6.0 11.1----29.96+0.00 56.8 51.4----
2026-08-29 10:54 pmWNW 6.0 9.9----29.96- 56.7 51.4----